Voltar ao catálogo

STARLINK-35023

AtivoComunicaçõesSSO
NORAD 65279·PAYLOAD·🇺🇸 United States

Lançado Aug 22, 2025 de Vandenberg Space Force Base

Loading…

Próximas Passagens (próximas 24 horas)

TLE

AtualizadoSource: CelesTrak SupGP

Época: Sep 14, 2026, 20:51 UTC

1 65279C 25184G   26257.86923611 -.00013636  00000+0 -42336-3 0  2575
2 65279  97.2835 305.8862 0001158  95.1046 107.9181 15.33442248    11

Acompanhe STARLINK-35023 em tempo real com AllMySat

Download on the App Store